DECAYED

STARLINK-1233, 45214 (Decayed)

Orbit data source: Space-Track

STARLINK-1233, 45214 was a payload satellite owned by SpaceX/Seattle (US) in LEO that was launched on Mon, 17 Feb 2020 UTC via an FALCON 9 launch vehicle from the Air Force Eastern Test Range (AFETR). Payloads include a variety of satellites, spacecraft, and rockets equipped with specific instruments for various scientific and technological missions. These include communications satellites like Starlink; space stations such as the ISS; scientific satellites like the Hubble; Earth observation satellites from companies like Planet Labs, Umbra, and HawkEye 360; GPS; miniature CubeSats for education and research; and military/defense satellites.

Not visible in the next 10 days
STARLINK-1233 details
Identifier
45214, 2020-012AN
Orbit
Decayed
Last TLE update4 months ago
Origin
Flag of USSpaceX/Seattle (US)
ManufacturerSpaceX/Seattle
MissionDecayed Commercial Communications
Bus & MotorSTARLINK, Unknown motor
Mass260 kg wet, ~248 kg dry
Launch date (UTC)
2020-02-17 (5 years ago)
Launch vehicle
FALCON 9
Launch site
Air Force Eastern Test Range (AFETR)
Object type
Payload
Rocket body
Debris
Shape & HBRBox + 1 Pan, 8.86 m
Radar Cross Section13.562 m², Large (>1 m²)

Expand to show TLE details & history

TLE from 4 months ago
0 STARLINK-1233
1 45214U 20012AN  24251.52473556  .12068549  11960-4  40922-2 0  9997
2 45214  53.0419 250.7743 0000964  42.3125  47.8914 16.24868836252626
Epoch: 2024-09-07T12:35Z
Definitive object data (Epoch: 2024-09-07T12:35:37.152Z)
Latitude53.19921°
Longitude165.14096°
Altitude212.428 km
Speed7.786 km/s
True Right ascension22h 44m 30s
True Declination53° 01' 13"
Sunlit
Object was in full shadow at TLE epoch
Visualization observer readout
Observer readout values are unavailable because the object's trajectory could not be propagated. This is usually caused when the trajectory data is faulty or the object's orbit has decayed.
Visualization observer readout
Observer readout values are unavailable because the object's trajectory could not be propagated. This is usually caused when the trajectory data is faulty or the object's orbit has decayed.
Orbital elements
Apogee altitude207.287 km
Perigee altitude206.017 km
Semi-major axis6,584.789 km
Eccentricity0.0000964
Inclination53.0419°
RAAN250.7743°
Arg. of periapsis42.3125°
True anomaly47.8996°
Mean anomaly47.8914°
Eccentric anomaly47.8955°
Mean motion4.06191 °/min
BSTAR0.0040922
Orbital period88.63 mins
Loading maneuver chart data...

STARLINK-1233 Visibility forecast

Observer location: undefined°, undefined

This satellite is decayed
Span
Click to sort rows by Start time (UTC) header in descending order
Start Az.
Max El. time (UTC)
Max El. Az.
Max El.
End time (UTC)
End Az.
|